Starlink 2404

operational
NORAD ID: 48093 Int'l Des: 2021-027 Owner: SPXS Country: US Constellation: starlink
LEOCIRCULARSTARLINK_TYPE

关于 Starlink 2404

正在加载描述...

实时位置

正在加载3D地球...

即将过境

高度历史

Altitude vs Time

uPlot chart will show altitude changes over time

两行轨道根数

1 48093U 21027B 26033.66670139 .00063443 00000-0 21386-2 0 9990
2 48093 53.1597 317.6298 0001581 123.3519 14.7047 15.30160420 5809
Epoch: Feb 2, 2026 • Age: 15 hours

当前状态

高度 480.6 km
速度 7.63 km/s
星下点 51.93°N, 141.88°E
发射日期 Apr 7, 2021
运行时间 4.8 years
类型 internet

技术详情

分类 Payload
质量 260.00 kg
干质量 248.00 kg
总质量 260.00 kg
长度 0.20 m
直径 2.80 m
跨度 9.00 m
形状 Box + pan
制造商 SPXS
平台类型 Starlink
阶段状态 In Orbit
所有者/国家 SPXS/US

大型星座

Loading constellations...